[[{"header":{"parameterUnit":"m.s-1","parameterCategory":1,"la1":30.2991,"la2":30.254,"lo1":-89.0895,"lo2":-89.0444,"dy":0.0017,"dx":0.0017,"nx":28,"ny":28,"refTime":"2024-07-15T09:00:00:Z","depth":0,"parameterNumber":2,"parameterNumberName":"U-component_of_WINDS"},"data":[0,0,0,0,0,0,0,0,0,0,0,0,0,0,0,0,0,0,0,0,0,0,0,0,0,0,0,0,0,0,0,0,0,0,0,0,0,0,0,0,0,0,0,0,0,0,0,0,0,0,0,0,0,0,0,0,0,0,-0.3356,-0.3357,0,-0.3426,-0.3427,-0.3428,-0.3425,-0.3424,-0.3423,-0.3422,-0.3493,-0.3496,-0.3499,0,0,0,0,0,0,0,0,0,0,0,0,0,-0.3218,-0.3221,-0.3356,-0.3357,-0.3358,-0.3426,-0.3427,-0.3428,-0.3425,-0.3424,-0.3423,-0.3421,-0.3492,-0.3496,-0.3499,0,0,0,0,0,0,0,0,0,0,0,0,0,-0.3282,-0.3222,-0.3356,-0.3364,-0.3366,-0.3426,-0.3427,-0.3428,-0.3425,-0.3424,-0.3422,-0.3421,-0.3491,-0.3495,-0.3499,-0.3555,0,0,-0.3512,-0.3514,0,0,0,0,0,0,0,0,-0.3278,-0.3287,-0.3362,-0.3364,-0.3366,-0.3415,-0.3404,-0.3471,-0.3426,-0.3403,-0.3422,-0.342,-0.3468,-0.3474,-0.3491,-0.3558,-0.3561,-0.3513,-0.3515,-0.3517,-0.3518,0,0,0,0,0,0,0,-0.3274,-0.3284,-0.3383,-0.3363,-0.3365,-0.3364,-0.3372,-0.3417,-0.3443,-0.3405,-0.3404,-0.3413,-0.3469,-0.3487,-0.3492,-0.3562,-0.3512,-0.3516,-0.3519,-0.352,-0.3678,-0.368,0,0,0,0,0,0,-0.3268,-0.328,-0.3381,-0.3386,-0.3318,-0.3368,-0.3376,-0.3401,-0.3442,-0.3447,-0.3414,-0.3412,-0.348,-0.3487,-0.3495,-0.3563,-0.3517,-0.3521,-0.3523,-0.3677,-0.3679,-0.3681,0,0,0,0,0,0,-0.3265,-0.3277,-0.3378,-0.3333,-0.3346,-0.3372,-0.3399,-0.3403,-0.3421,-0.345,-0.3454,-0.3427,-0.3479,-0.3489,-0.354,-0.3565,-0.3523,-0.3527,-0.3675,-0.3677,-0.368,-0.3699,0,0,0,0,0,0,-0.3261,-0.3276,-0.3298,-0.3334,-0.3348,-0.3423,-0.3401,-0.3405,-0.3428,-0.3427,-0.3463,-0.3468,-0.3479,-0.3534,-0.3544,-0.357,-0.353,-0.3673,-0.3676,-0.3679,-0.3696,-0.3701,-0.3706,0,0,0,0,0,-0.3256,-0.33,-0.3299,-0.3311,-0.3376,-0.3424,-0.3433,-0.3445,-0.343,-0.3452,-0.347,-0.3467,-0.356,-0.3539,-0.3551,-0.3578,-0.3671,-0.3675,-0.3679,-0.3693,-0.37,-0.3706,0,0,0,0,0,0,-0.3266,-0.3305,-0.3304,-0.3361,-0.3389,-0.3424,-0.3452,-0.3451,-0.3484,-0.3482,-0.3495,-0.3503,-0.3554,-0.3571,-0.3546,-0.3634,-0.3614,-0.362,-0.3621,-0.3628,-0.3633,-0.3628,-0.3533,0,0,0,0,0,-0.3275,-0.3311,-0.3343,-0.339,-0.3405,-0.3426,-0.3447,-0.3454,-0.3484,-0.3496,-0.3518,-0.3547,-0.3582,-0.3606,-0.3641,-0.3698,-0.3706,-0.3723,-0.3728,-0.3732,-0.3737,-0.3769,-0.3776,-0.3693,-0.3693,-0.3693,0,0,-0.3294,-0.3319,-0.3342,-0.3393,-0.3416,-0.3453,-0.3436,-0.3476,-0.3503,-0.3501,-0.3551,-0.3568,-0.3601,-0.3656,-0.3681,-0.3672,-0.3762,-0.3737,-0.374,-0.3743,-0.3773,-0.3781,-0.3788,-0.3695,-0.3695,-0.3694,0,0,-0.3347,-0.337,-0.3412,-0.3435,-0.347,-0.3483,-0.3493,-0.3528,-0.3539,-0.3589,-0.3589,-0.3621,-0.3683,-0.3706,-0.3726,-0.3787,-0.3785,-0.3798,-0.3825,-0.3856,-0.3862,-0.3868,-0.389,-0.3898,-0.3803,-0.3803,-0.3803,0,-0.3366,-0.3422,-0.3433,-0.3474,-0.3496,-0.3496,-0.3538,-0.356,-0.3604,-0.362,-0.3608,-0.3685,-0.3708,-0.3767,-0.3782,-0.3798,-0.381,-0.3794,-0.386,-0.3867,-0.3872,-0.3893,-0.3901,-0.3805,-0.3805,-0.3804,-0.3804,0,-0.3444,-0.3483,-0.3512,-0.3555,-0.358,-0.3621,-0.3639,-0.3663,-0.3667,-0.3681,-0.3732,-0.3759,-0.3798,-0.3813,-0.3817,-0.3873,-0.3866,-0.3858,-0.3838,-0.3881,-0.3901,-0.391,-0.3807,-0.3806,-0.3806,-0.3805,0,0,-0.3507,-0.3555,-0.3565,-0.3585,-0.3622,-0.3652,-0.3693,-0.3732,-0.3753,-0.3783,-0.3817,-0.3869,-0.3861,-0.3883,-0.389,-0.3917,-0.3963,-0.3905,-0.3906,-0.3915,-0.4027,-0.4033,-0.4043,-0.3962,-0.3963,-0.3965,-0.4024,0,-0.3564,-0.3637,-0.3648,-0.3711,-0.3747,-0.3747,-0.3782,-0.3809,-0.3824,-0.3856,-0.3871,-0.3908,-0.3894,-0.3908,-0.3934,-0.3952,-0.3986,-0.3948,-0.3994,-0.3995,-0.3986,-0.4053,-0.406,-0.4115,-0.4032,-0.4033,-0.4034,0,-0.3641,-0.3674,-0.3741,-0.3774,-0.3789,-0.3821,-0.3857,-0.3888,-0.3918,-0.3926,-0.3951,-0.3954,-0.3996,-0.3974,-0.4031,-0.4005,-0.4024,-0.4035,-0.4038,-0.4043,-0.4018,-0.4061,-0.4133,-0.4141,-0.4047,-0.4046,-0.4045,0,-0.3681,-0.3741,-0.3789,-0.3805,-0.3845,-0.3867,-0.3884,-0.3913,-0.3935,-0.3967,-0.3981,-0.4017,-0.4037,-0.4064,-0.4077,-0.4059,-0.4133,-0.4112,-0.4142,-0.4141,-0.4158,-0.4157,-0.4235,-0.4169,-0.4169,-0.4169,-0.4169,0,-0.3744,-0.3786,-0.3807,-0.3837,-0.3883,-0.3895,-0.394,-0.3956,-0.3981,-0.4014,-0.4016,-0.4046,-0.406,-0.4093,-0.4103,-0.4149,-0.4157,-0.4165,-0.4168,-0.4166,-0.4165,-0.4179,-0.4176,-0.4171,-0.4171,-0.417,-0.417,0,-0.3797,-0.3813,-0.3865,-0.3898,-0.3907,-0.3939,-0.3967,-0.3995,-0.4009,-0.405,-0.406,-0.4082,-0.412,-0.4135,-0.4182,-0.4188,-0.4241,-0.424,-0.4231,-0.4232,-0.4261,-0.4258,-0.4351,-0.4364,-0.429,-0.429,-0.4291,0,-0.3836,-0.3868,-0.3904,-0.3926,-0.3944,-0.3979,-0.4002,-0.4015,-0.4039,-0.4075,-0.4099,-0.4137,-0.4168,-0.4229,-0.4248,-0.4284,-0.4284,-0.4314,-0.4289,-0.4286,-0.4285,-0.4283,-0.4286,-0.4319,-0.432,-0.432,-0.4321,0,-0.3905,-0.3912,-0.3945,-0.3981,-0.4009,-0.4038,-0.4066,-0.4083,-0.41,-0.4126,-0.4165,-0.419,-0.4237,-0.4275,-0.4311,-0.4328,-0.4327,-0.4328,-0.4337,-0.4336,-0.4329,-0.4333,-0.4244,-0.4326,-0.4326,-0.4325,-0.4325,-0.4325,-0.3953,-0.3981,-0.4011,-0.4048,-0.407,-0.4096,-0.4125,-0.4142,-0.4175,-0.4214,-0.4219,-0.4261,-0.429,-0.4338,-0.4357,-0.439,-0.4382,-0.4394,-0.4397,-0.4401,-0.4403,-0.4324,-0.4396,-0.4396,-0.4396,-0.4396,-0.4396,0,-0.4023,-0.4041,-0.4075,-0.4114,-0.4143,-0.414,-0.417,-0.4195,-0.4232,-0.4258,-0.4289,-0.4334,-0.437,-0.4392,-0.4428,-0.445,-0.4451,-0.4459,-0.4458,-0.4462,-0.4408,-0.4397,-0.4458,-0.4458,-0.4458,-0.4458,-0.4458,-0.4458,-0.4062,-0.411,-0.4119,-0.4178,-0.4196,-0.4237,-0.4255,-0.4279,-0.43,-0.435,-0.438,-0.4394,-0.4419,-0.4457,-0.449,-0.4496,-0.4509,-0.4519,-0.4523,-0.4472,-0.4466,-0.446,-0.445,-0.4521,-0.4521,-0.4575,-0.4576,-0.4576]},{"header":{"parameterUnit":"m.s-1","parameterCategory":1,"la1":30.2991,"la2":30.254,"lo1":-89.0895,"lo2":-89.0444,"dy":0.0017,"dx":0.0017,"nx":28,"ny":28,"refTime":"2024-07-15T09:00:00:Z","depth":0,"parameterNumber":3,"parameterNumberName":"V-component_of_WINDS"},"data":[0,0,0,0,0,0,0,0,0,0,0,0,0,0,0,0,0,0,0,0,0,0,0,0,0,0,0,0,0,0,0,0,0,0,0,0,0,0,0,0,0,0,0,0,0,0,0,0,0,0,0,0,0,0,0,0,0,0,-1.3805,-1.3803,0,-1.3674,-1.3672,-1.3671,-1.3582,-1.3581,-1.3581,-1.358,-1.3438,-1.3435,-1.3432,0,0,0,0,0,0,0,0,0,0,0,0,0,-1.3971,-1.3968,-1.3805,-1.3803,-1.3802,-1.3674,-1.3672,-1.367,-1.3582,-1.3581,-1.3581,-1.358,-1.3439,-1.3436,-1.3432,0,0,0,0,0,0,0,0,0,0,0,0,0,-1.3875,-1.3968,-1.3805,-1.3742,-1.3735,-1.3674,-1.3672,-1.367,-1.3582,-1.3581,-1.358,-1.358,-1.3441,-1.3436,-1.3431,-1.342,0,0,-1.3416,-1.3414,0,0,0,0,0,0,0,0,-1.3881,-1.3869,-1.3753,-1.3746,-1.3739,-1.3643,-1.3679,-1.3586,-1.3582,-1.364,-1.358,-1.3579,-1.3507,-1.3496,-1.3474,-1.3413,-1.3407,-1.3416,-1.3413,-1.3411,-1.341,0,0,0,0,0,0,0,-1.3887,-1.3874,-1.3753,-1.3751,-1.3743,-1.3718,-1.3704,-1.3661,-1.358,-1.3635,-1.3628,-1.3614,-1.3503,-1.3479,-1.347,-1.3405,-1.3416,-1.3412,-1.3409,-1.3407,-1.3329,-1.3329,0,0,0,0,0,0,-1.3905,-1.388,-1.3757,-1.3749,-1.3809,-1.3716,-1.37,-1.3675,-1.358,-1.3565,-1.3615,-1.3611,-1.3487,-1.3475,-1.3464,-1.3446,-1.3411,-1.3407,-1.3404,-1.3328,-1.3329,-1.333,0,0,0,0,0,0,-1.3909,-1.3895,-1.3762,-1.3813,-1.3794,-1.3714,-1.3687,-1.3673,-1.3649,-1.3565,-1.355,-1.3606,-1.3486,-1.3471,-1.3432,-1.3439,-1.3404,-1.34,-1.3327,-1.3328,-1.3329,-1.3408,0,0,0,0,0,0,-1.3914,-1.3897,-1.3894,-1.3813,-1.3792,-1.3735,-1.3687,-1.3671,-1.3642,-1.3634,-1.3553,-1.3538,-1.3484,-1.344,-1.3428,-1.3432,-1.3396,-1.3326,-1.3327,-1.3329,-1.3404,-1.3412,-1.3418,0,0,0,0,0,-1.392,-1.3919,-1.3894,-1.3879,-1.3786,-1.3735,-1.3723,-1.3663,-1.3643,-1.3637,-1.3584,-1.3541,-1.3441,-1.3437,-1.3422,-1.3425,-1.3325,-1.3327,-1.3329,-1.3401,-1.341,-1.3418,0,0,0,0,0,0,-1.3999,-1.3907,-1.3878,-1.3852,-1.3803,-1.3721,-1.3713,-1.3674,-1.3627,-1.3622,-1.3547,-1.3529,-1.3498,-1.3457,-1.3455,-1.3409,-1.3377,-1.3376,-1.3438,-1.3446,-1.3452,-1.3463,-1.3392,0,0,0,0,0,-1.4014,-1.3983,-1.3903,-1.3887,-1.3864,-1.3793,-1.3768,-1.3727,-1.3671,-1.3649,-1.3593,-1.3539,-1.3495,-1.3468,-1.3423,-1.3398,-1.3378,-1.3392,-1.3399,-1.3405,-1.3406,-1.3389,-1.3395,-1.3336,-1.3336,-1.3336,0,0,-1.4043,-1.3989,-1.3974,-1.3902,-1.3859,-1.3826,-1.3776,-1.3743,-1.3718,-1.3643,-1.3605,-1.3561,-1.3495,-1.3464,-1.3447,-1.3429,-1.3418,-1.3408,-1.3413,-1.341,-1.3392,-1.3398,-1.3403,-1.3337,-1.3337,-1.3336,0,0,-1.408,-1.4037,-1.4019,-1.3978,-1.3914,-1.3867,-1.3863,-1.3787,-1.3756,-1.3716,-1.366,-1.3627,-1.3553,-1.3509,-1.3477,-1.3499,-1.3457,-1.3485,-1.3521,-1.3507,-1.3511,-1.3515,-1.3523,-1.3527,-1.3486,-1.3486,-1.3486,0,-1.4124,-1.4076,-1.4014,-1.3986,-1.3956,-1.3889,-1.387,-1.3832,-1.3756,-1.3735,-1.3716,-1.3623,-1.3574,-1.3532,-1.3537,-1.3513,-1.3505,-1.3495,-1.3516,-1.3519,-1.3522,-1.3529,-1.3532,-1.349,-1.3489,-1.3489,-1.3489,0,-1.4133,-1.41,-1.4093,-1.4025,-1.3993,-1.397,-1.3903,-1.3877,-1.3838,-1.3793,-1.3752,-1.3691,-1.3634,-1.362,-1.358,-1.3571,-1.3562,-1.3531,-1.3497,-1.3533,-1.3538,-1.354,-1.3496,-1.3494,-1.3493,-1.3492,0,0,-1.4217,-1.4116,-1.4115,-1.4083,-1.4008,-1.398,-1.3953,-1.3899,-1.3879,-1.3828,-1.3803,-1.3742,-1.3713,-1.3677,-1.3631,-1.3618,-1.3639,-1.3587,-1.3585,-1.36,-1.3626,-1.3652,-1.3656,-1.3611,-1.3611,-1.3611,-1.3632,0,-1.4243,-1.4194,-1.4138,-1.4107,-1.4076,-1.4012,-1.3988,-1.3938,-1.3895,-1.3859,-1.3809,-1.3768,-1.3732,-1.371,-1.3694,-1.364,-1.3644,-1.3638,-1.3585,-1.3584,-1.3605,-1.3659,-1.3685,-1.3708,-1.3634,-1.3634,-1.3634,0,-1.4268,-1.4225,-1.4192,-1.4121,-1.4105,-1.4085,-1.4032,-1.3999,-1.3941,-1.3909,-1.387,-1.3822,-1.3787,-1.3758,-1.3708,-1.3706,-1.368,-1.365,-1.365,-1.3643,-1.3613,-1.3655,-1.3714,-1.3718,-1.3637,-1.3637,-1.3636,0,-1.4335,-1.4267,-1.4239,-1.4213,-1.4129,-1.4117,-1.408,-1.4021,-1.3993,-1.3944,-1.3925,-1.3872,-1.3844,-1.3803,-1.3741,-1.3725,-1.3699,-1.3663,-1.3671,-1.3673,-1.3669,-1.367,-1.3726,-1.3651,-1.3651,-1.3651,-1.3651,0,-1.4371,-1.4354,-1.4268,-1.4251,-1.4229,-1.4163,-1.4142,-1.4099,-1.4048,-1.4019,-1.3959,-1.3934,-1.3853,-1.3817,-1.3768,-1.3735,-1.3721,-1.3694,-1.3682,-1.3701,-1.3704,-1.3684,-1.3681,-1.3652,-1.3651,-1.3651,-1.3651,0,-1.4442,-1.4384,-1.4349,-1.4273,-1.4253,-1.4241,-1.4174,-1.4154,-1.4107,-1.4072,-1.406,-1.3985,-1.3939,-1.3874,-1.3807,-1.3774,-1.3748,-1.3727,-1.377,-1.3762,-1.3774,-1.3774,-1.3819,-1.3822,-1.3745,-1.3746,-1.3747,0,-1.447,-1.4456,-1.4379,-1.4358,-1.4325,-1.429,-1.4261,-1.4195,-1.4167,-1.41,-1.4088,-1.4038,-1.3995,-1.3925,-1.3863,-1.3812,-1.3789,-1.3809,-1.3781,-1.3801,-1.3791,-1.3793,-1.3791,-1.3816,-1.3817,-1.3818,-1.3819,0,-1.4526,-1.4499,-1.4461,-1.4414,-1.4382,-1.4341,-1.4296,-1.4281,-1.4205,-1.4176,-1.4131,-1.4098,-1.4031,-1.3983,-1.3923,-1.3882,-1.3838,-1.3828,-1.3827,-1.3847,-1.3873,-1.386,-1.3789,-1.3827,-1.3826,-1.3826,-1.3825,-1.3825,-1.4577,-1.4562,-1.4507,-1.4467,-1.4427,-1.4387,-1.4365,-1.4316,-1.4278,-1.4221,-1.4183,-1.414,-1.408,-1.3996,-1.3958,-1.3921,-1.3903,-1.3901,-1.3901,-1.3902,-1.3909,-1.3878,-1.391,-1.3909,-1.3909,-1.3909,-1.3909,0,-1.4632,-1.4593,-1.4557,-1.4499,-1.4467,-1.443,-1.4379,-1.4354,-1.4318,-1.4268,-1.4228,-1.4175,-1.4128,-1.4063,-1.401,-1.3993,-1.3971,-1.3981,-1.3982,-1.3974,-1.3928,-1.3935,-1.4,-1.4,-1.4,-1.4,-1.4,-1.4,-1.4656,-1.4629,-1.4595,-1.4547,-1.4507,-1.4467,-1.4441,-1.4403,-1.4363,-1.4308,-1.427,-1.4228,-1.4171,-1.4114,-1.4068,-1.405,-1.4033,-1.4051,-1.4026,-1.3985,-1.3977,-1.3969,-1.3975,-1.4047,-1.4047,-1.4074,-1.4075,-1.4075]}]]